[[{"header":{"parameterUnit":"m.s-1","parameterCategory":1,"la1":30.2991,"la2":30.254,"lo1":-89.0895,"lo2":-89.0444,"dy":0.0017,"dx":0.0017,"nx":28,"ny":28,"refTime":"2025-04-30T03:00:00:Z","depth":0,"parameterNumber":2,"parameterNumberName":"U-component_of_WINDS"},"data":[0,0,0,0,0,0,0,0,0,0,0,0,0,0,0,0,0,0,0,0,0,0,0,0,0,0,0,0,0,0,0,0,0,0,0,0,0,0,0,0,0,0,0,0,0,0,0,0,0,0,0,0,0,0,0,0,0,0,-2.2954,-2.2955,0,-2.3012,-2.3013,-2.3014,-2.2997,-2.2995,-2.2994,-2.2993,-2.3052,-2.3054,-2.3057,0,0,0,0,0,0,0,0,0,0,0,0,0,-2.2828,-2.283,-2.2954,-2.2955,-2.2956,-2.3012,-2.3013,-2.3014,-2.2997,-2.2995,-2.2994,-2.2992,-2.3051,-2.3054,-2.3057,0,0,0,0,0,0,0,0,0,0,0,0,0,-2.2884,-2.2831,-2.2954,-2.2954,-2.2955,-2.3012,-2.3013,-2.3014,-2.2997,-2.2995,-2.2993,-2.2992,-2.305,-2.3054,-2.3058,-2.3119,0,0,-2.307,-2.3072,0,0,0,0,0,0,0,0,-2.2881,-2.2889,-2.2953,-2.2954,-2.2955,-2.2995,-2.299,-2.3049,-2.2997,-2.2981,-2.2993,-2.2991,-2.3034,-2.3039,-2.3054,-2.3121,-2.3124,-2.307,-2.3073,-2.3074,-2.3075,0,0,0,0,0,0,0,-2.2877,-2.2886,-2.2977,-2.2954,-2.2955,-2.2951,-2.2957,-2.3001,-2.3017,-2.2982,-2.2981,-2.2988,-2.3034,-2.305,-2.3056,-2.3125,-2.307,-2.3074,-2.3076,-2.3078,-2.3245,-2.3247,0,0,0,0,0,0,-2.2873,-2.2883,-2.2975,-2.2979,-2.2913,-2.2955,-2.2961,-2.2984,-2.3016,-2.302,-2.299,-2.2987,-2.3044,-2.3051,-2.3058,-2.3131,-2.3074,-2.3078,-2.308,-2.3243,-2.3245,-2.3247,0,0,0,0,0,0,-2.287,-2.2881,-2.2973,-2.2931,-2.2942,-2.2959,-2.2985,-2.2986,-2.3002,-2.3022,-2.3025,-2.3003,-2.3043,-2.3052,-2.3104,-2.3133,-2.308,-2.3084,-2.324,-2.3243,-2.3246,-2.3278,0,0,0,0,0,0,-2.2867,-2.288,-2.2904,-2.2931,-2.2944,-2.3018,-2.2986,-2.2989,-2.3009,-2.3007,-2.3036,-2.3039,-2.3043,-2.3098,-2.3108,-2.3137,-2.3087,-2.3238,-2.3242,-2.3245,-2.3275,-2.3282,-2.3288,0,0,0,0,0,-2.2862,-2.291,-2.2905,-2.2916,-2.2974,-2.302,-2.3028,-2.3031,-2.3012,-2.3035,-2.3048,-2.3038,-2.3128,-2.3103,-2.3114,-2.3145,-2.3236,-2.3241,-2.3245,-2.3272,-2.328,-2.3288,0,0,0,0,0,0,-2.2885,-2.2914,-2.2908,-2.2967,-2.2991,-2.3017,-2.3047,-2.3041,-2.3071,-2.3067,-2.307,-2.3077,-2.313,-2.3143,-2.3114,-2.3206,-2.3179,-2.3186,-2.3196,-2.3204,-2.3211,-2.3206,-2.309,0,0,0,0,0,-2.2897,-2.2932,-2.2955,-2.3005,-2.3017,-2.303,-2.305,-2.3051,-2.3076,-2.3086,-2.3103,-2.3128,-2.3161,-2.3184,-2.3216,-2.3277,-2.3283,-2.3304,-2.3311,-2.3316,-2.3322,-2.3355,-2.3364,-2.3262,-2.3262,-2.3262,0,0,-2.2922,-2.2942,-2.2964,-2.301,-2.3029,-2.3065,-2.3039,-2.3078,-2.3105,-2.3092,-2.3142,-2.3155,-2.3183,-2.3239,-2.3265,-2.3252,-2.3351,-2.3322,-2.3326,-2.3329,-2.336,-2.337,-2.3379,-2.3265,-2.3265,-2.3264,0,0,-2.2986,-2.3005,-2.3048,-2.3068,-2.3097,-2.3105,-2.3116,-2.3143,-2.3151,-2.3201,-2.3192,-2.3224,-2.3283,-2.3303,-2.332,-2.3393,-2.3384,-2.3403,-2.3438,-2.347,-2.3478,-2.3485,-2.3511,-2.352,-2.3409,-2.3409,-2.3409,0,-2.3013,-2.3067,-2.3071,-2.3111,-2.3132,-2.3122,-2.3166,-2.3185,-2.3223,-2.3237,-2.3222,-2.3295,-2.3313,-2.3374,-2.3392,-2.3407,-2.3419,-2.3399,-2.3477,-2.3484,-2.3491,-2.3515,-2.3525,-2.3411,-2.3411,-2.3411,-2.341,0,-2.3099,-2.3137,-2.3168,-2.3206,-2.323,-2.3271,-2.3281,-2.3305,-2.3304,-2.3314,-2.3365,-2.3387,-2.3423,-2.3438,-2.3437,-2.3499,-2.349,-2.3476,-2.3449,-2.3503,-2.3525,-2.3535,-2.3414,-2.3413,-2.3413,-2.3412,0,0,-2.3179,-2.3218,-2.3229,-2.3246,-2.3278,-2.3307,-2.3348,-2.3384,-2.3404,-2.3431,-2.3466,-2.3516,-2.3503,-2.3523,-2.3525,-2.3553,-2.3609,-2.3536,-2.3537,-2.3548,-2.3677,-2.3687,-2.3698,-2.3603,-2.3605,-2.3607,-2.3675,0,-2.3245,-2.3318,-2.3322,-2.3388,-2.3423,-2.3415,-2.3451,-2.3474,-2.3484,-2.3515,-2.3527,-2.3562,-2.3543,-2.3555,-2.3583,-2.3596,-2.3634,-2.3591,-2.3635,-2.3637,-2.3628,-2.371,-2.372,-2.3784,-2.3684,-2.3685,-2.3687,0,-2.3332,-2.3361,-2.343,-2.3457,-2.3472,-2.3504,-2.3537,-2.3567,-2.3593,-2.3599,-2.3622,-2.362,-2.3662,-2.3634,-2.3692,-2.3662,-2.3681,-2.369,-2.3693,-2.3696,-2.3664,-2.3715,-2.3804,-2.3813,-2.3701,-2.3699,-2.3698,0,-2.3382,-2.3439,-2.3488,-2.3503,-2.3535,-2.3558,-2.3573,-2.3597,-2.3618,-2.3648,-2.3661,-2.3695,-2.3714,-2.374,-2.3747,-2.3725,-2.3805,-2.3777,-2.381,-2.381,-2.3826,-2.3825,-2.3919,-2.3839,-2.3839,-2.3839,-2.3839,0,-2.3455,-2.3498,-2.3511,-2.3541,-2.3588,-2.3593,-2.364,-2.3653,-2.3675,-2.3708,-2.3703,-2.3733,-2.3741,-2.3773,-2.3778,-2.3825,-2.3834,-2.3839,-2.384,-2.3839,-2.3839,-2.3851,-2.3846,-2.3842,-2.3841,-2.384,-2.384,0,-2.3519,-2.353,-2.3582,-2.3609,-2.3617,-2.3651,-2.3673,-2.3702,-2.3712,-2.3753,-2.3763,-2.3778,-2.3816,-2.3825,-2.387,-2.3873,-2.3929,-2.3926,-2.392,-2.392,-2.3952,-2.3949,-2.4056,-2.4071,-2.3982,-2.3983,-2.3984,0,-2.3565,-2.3597,-2.3628,-2.3649,-2.3665,-2.3699,-2.3721,-2.3727,-2.375,-2.3782,-2.3807,-2.3844,-2.3873,-2.3933,-2.3948,-2.3982,-2.398,-2.4015,-2.3985,-2.3983,-2.398,-2.3978,-2.3981,-2.4021,-2.4022,-2.4023,-2.4023,0,-2.3645,-2.3648,-2.368,-2.3714,-2.374,-2.3767,-2.3792,-2.381,-2.382,-2.3846,-2.3884,-2.3907,-2.3952,-2.3989,-2.4023,-2.4038,-2.4032,-2.4033,-2.4042,-2.4041,-2.4037,-2.4039,-2.3935,-2.403,-2.4029,-2.4029,-2.4029,-2.4028,-2.3701,-2.3729,-2.3755,-2.379,-2.381,-2.3834,-2.3863,-2.3876,-2.3908,-2.3946,-2.3947,-2.3989,-2.4014,-2.406,-2.4077,-2.4109,-2.4098,-2.4112,-2.4115,-2.4118,-2.4121,-2.4032,-2.4115,-2.4115,-2.4115,-2.4115,-2.4115,0,-2.378,-2.3796,-2.3829,-2.3865,-2.3893,-2.3885,-2.3913,-2.3937,-2.3973,-2.3998,-2.4027,-2.4071,-2.4106,-2.4124,-2.4159,-2.4181,-2.418,-2.419,-2.4189,-2.4192,-2.4129,-2.4117,-2.4191,-2.4191,-2.4191,-2.4191,-2.4191,-2.4191,-2.3825,-2.3872,-2.3879,-2.3937,-2.3953,-2.3993,-2.401,-2.4032,-2.4051,-2.41,-2.4129,-2.4141,-2.4163,-2.42,-2.4232,-2.4236,-2.4249,-2.4261,-2.4264,-2.4204,-2.4197,-2.4189,-2.4178,-2.4264,-2.4264,-2.4325,-2.4325,-2.4326]},{"header":{"parameterUnit":"m.s-1","parameterCategory":1,"la1":30.2991,"la2":30.254,"lo1":-89.0895,"lo2":-89.0444,"dy":0.0017,"dx":0.0017,"nx":28,"ny":28,"refTime":"2025-04-30T03:00:00:Z","depth":0,"parameterNumber":3,"parameterNumberName":"V-component_of_WINDS"},"data":[0,0,0,0,0,0,0,0,0,0,0,0,0,0,0,0,0,0,0,0,0,0,0,0,0,0,0,0,0,0,0,0,0,0,0,0,0,0,0,0,0,0,0,0,0,0,0,0,0,0,0,0,0,0,0,0,0,0,4.1672,4.1672,0,4.1696,4.1696,4.1697,4.1649,4.1648,4.1646,4.1645,4.1667,4.1669,4.1671,0,0,0,0,0,0,0,0,0,0,0,0,0,4.1581,4.1583,4.1672,4.1672,4.1672,4.1696,4.1696,4.1697,4.1649,4.1648,4.1646,4.1644,4.1666,4.1668,4.1671,0,0,0,0,0,0,0,0,0,0,0,0,0,4.1614,4.1583,4.1671,4.1652,4.165,4.1696,4.1696,4.1697,4.165,4.1648,4.1645,4.1643,4.1665,4.1668,4.1671,4.1737,0,0,4.168,4.1682,0,0,0,0,0,0,0,0,4.1612,4.1617,4.1654,4.1653,4.1651,4.1667,4.1672,4.171,4.165,4.165,4.1645,4.1642,4.1668,4.1671,4.1681,4.1738,4.1738,4.1681,4.1683,4.1684,4.1685,0,0,0,0,0,0,0,4.161,4.1616,4.1681,4.1655,4.1653,4.164,4.1643,4.1679,4.1672,4.165,4.1646,4.165,4.1667,4.1678,4.1681,4.1739,4.1681,4.1683,4.1685,4.1686,4.1849,4.1851,0,0,0,0,0,0,4.1611,4.1614,4.168,4.1682,4.1626,4.1644,4.1646,4.1664,4.1671,4.167,4.1652,4.1648,4.1674,4.1677,4.1681,4.1757,4.1684,4.1687,4.1688,4.1847,4.185,4.1852,0,0,0,0,0,0,4.1609,4.1617,4.1679,4.1647,4.1654,4.1648,4.1669,4.1666,4.1677,4.1673,4.1671,4.1664,4.1672,4.1677,4.1723,4.1757,4.1688,4.1691,4.1844,4.1848,4.1851,4.191,0,0,0,0,0,0,4.1606,4.1617,4.1642,4.1648,4.1656,4.1722,4.1671,4.1668,4.1682,4.1677,4.1684,4.1683,4.1671,4.1719,4.1726,4.176,4.1693,4.1841,4.1845,4.185,4.1905,4.1915,4.1924,0,0,0,0,0,4.1603,4.1657,4.1644,4.1652,4.1688,4.1724,4.1728,4.1713,4.1686,4.171,4.1708,4.1683,4.1753,4.1724,4.1732,4.1767,4.1838,4.1844,4.1849,4.19,4.1913,4.1924,0,0,0,0,0,0,4.1654,4.1658,4.1643,4.17,4.1712,4.1716,4.1746,4.1728,4.1747,4.1741,4.1721,4.1723,4.1772,4.1775,4.1742,4.183,4.1791,4.1798,4.1827,4.1839,4.1848,4.1846,4.1696,0,0,0,0,0,4.1672,4.1702,4.1703,4.1754,4.1761,4.1753,4.1768,4.1756,4.1767,4.1771,4.1772,4.1783,4.1807,4.1823,4.1846,4.1906,4.1905,4.1934,4.1944,4.1951,4.1957,4.1988,4.2,4.1871,4.1871,4.1871,0,0,4.1709,4.1715,4.1735,4.1764,4.1772,4.1802,4.1757,4.1791,4.1812,4.1776,4.1819,4.1821,4.1831,4.1884,4.1907,4.1887,4.1993,4.1959,4.1965,4.1967,4.1995,4.2007,4.2018,4.1875,4.1874,4.1873,0,0,4.1792,4.18,4.1843,4.1852,4.1864,4.1859,4.1869,4.1876,4.1876,4.1919,4.1892,4.1917,4.196,4.1968,4.1978,4.2064,4.2041,4.2072,4.2122,4.2152,4.2162,4.2171,4.22,4.221,4.2079,4.2079,4.2079,0,4.1836,4.1881,4.1867,4.1902,4.1915,4.1885,4.1927,4.1936,4.1955,4.1964,4.1942,4.1995,4.2,4.2054,4.2075,4.2085,4.2094,4.207,4.2162,4.217,4.2178,4.2206,4.2217,4.2082,4.2082,4.2082,4.2081,0,4.1934,4.1965,4.1998,4.2018,4.2035,4.2074,4.2064,4.2083,4.207,4.2066,4.211,4.2116,4.2138,4.2151,4.2138,4.2202,4.2189,4.2165,4.2124,4.2194,4.222,4.223,4.2087,4.2086,4.2085,4.2084,0,0,4.2047,4.2059,4.2071,4.208,4.2092,4.2115,4.2153,4.2175,4.2191,4.2206,4.2235,4.2272,4.2249,4.2261,4.2249,4.2276,4.2342,4.2247,4.2247,4.2263,4.2411,4.2428,4.244,4.2328,4.233,4.2331,4.241,0,4.2127,4.2192,4.218,4.2243,4.2271,4.2243,4.2275,4.2285,4.2284,4.2306,4.2304,4.233,4.2299,4.2305,4.2331,4.2328,4.2371,4.2323,4.2353,4.2354,4.2349,4.2454,4.2472,4.2546,4.242,4.2421,4.2423,0,4.223,4.2249,4.2314,4.2321,4.2332,4.2362,4.2381,4.2404,4.2415,4.2411,4.2425,4.2408,4.2443,4.2404,4.2452,4.242,4.2431,4.2432,4.2435,4.2435,4.2391,4.2455,4.2569,4.2579,4.2438,4.2437,4.2436,0,4.2303,4.2345,4.239,4.2398,4.2408,4.2429,4.2434,4.2443,4.2457,4.2474,4.2483,4.2504,4.2515,4.2531,4.2519,4.2492,4.2569,4.2529,4.2565,4.2565,4.258,4.2579,4.2696,4.2592,4.2592,4.2592,4.2592,0,4.2393,4.2434,4.2423,4.245,4.2494,4.248,4.2524,4.2526,4.2534,4.2559,4.2537,4.2562,4.2546,4.2569,4.2561,4.2601,4.2607,4.2604,4.26,4.2604,4.2604,4.261,4.2604,4.2595,4.2594,4.2593,4.2593,0,4.2482,4.2477,4.2523,4.2529,4.2531,4.2564,4.2568,4.2593,4.259,4.2623,4.2629,4.2624,4.265,4.2641,4.2669,4.2663,4.2713,4.2705,4.271,4.2707,4.2743,4.2739,4.2865,4.288,4.2769,4.277,4.2771,0,4.2538,4.2569,4.2579,4.2595,4.2602,4.2628,4.2643,4.2631,4.2647,4.2662,4.2684,4.2708,4.2727,4.2769,4.2767,4.2788,4.2778,4.2821,4.2781,4.2784,4.2776,4.2774,4.2776,4.2828,4.283,4.2831,4.2832,0,4.2639,4.2635,4.2657,4.2679,4.2698,4.2714,4.2728,4.2742,4.2731,4.275,4.2776,4.2791,4.282,4.2843,4.2862,4.2866,4.2846,4.2845,4.2854,4.2857,4.2858,4.2856,4.2729,4.2841,4.284,4.284,4.2839,4.2839,4.2712,4.2737,4.2748,4.2774,4.2783,4.2797,4.282,4.2821,4.2843,4.2866,4.2857,4.2887,4.2897,4.292,4.2927,4.295,4.2933,4.2947,4.295,4.2953,4.2957,4.2857,4.2953,4.2953,4.2953,4.2953,4.2952,0,4.2809,4.2815,4.2839,4.286,4.288,4.2862,4.2876,4.2894,4.2921,4.2932,4.2951,4.2981,4.3004,4.3005,4.3026,4.3044,4.3036,4.305,4.3047,4.3048,4.2971,4.296,4.3056,4.3056,4.3056,4.3056,4.3056,4.3056,4.2862,4.2904,4.2901,4.2947,4.2952,4.2982,4.2992,4.3004,4.3013,4.3048,4.3067,4.3068,4.3074,4.3096,4.3116,4.3115,4.3123,4.314,4.3136,4.3064,4.3054,4.3044,4.3033,4.3143,4.3143,4.321,4.3211,4.3212]}]]